[Date Prev][Date Next][Thread Prev][Thread Next] - [Date Index][Thread Index][Author Index]

2 Line ISS Keps 8-30



ISS 
1 25544U 98067A   03242.19002587  .00019053  00000-0  22115-3 0  4204
2 25544  51.6339   7.6324 0007105 182.8982 249.3989 15.61775420272566



----
Via the sarex mailing list at AMSAT.ORG courtesy of AMSAT-NA.
To unsubscribe, send "unsubscribe sarex" to Majordomo@amsat.org



AMSAT Top AMSAT Home